Location: Auckland
(36.8670°S, 174.7670°E)
Time: 21:52:12
(UTC+12:00)

Courier 1B Rocket - Pass Details

Date: 28 July 2019
Orbit: 920 x 1202 km, 28.2° (Epoch: 25 August)

Event Time Altitude Azimuth Distance (km) Brightness Sun altitude
Rises 06:25:39 0° 274° (W) 4,100 - -11.7°
Exits shadow 06:28:34 - 282° (WNW) 3,220 7.2 -11.1°
Reaches altitude 10° 06:28:56 10° 284° (WNW) 3,117 7.1 -11.1°
Maximum altitude 06:35:24 29° 341° (NNW) 1,961 6.6 -9.8°
Drops below altitude 10° 06:41:36 10° 38° (NE) 2,972 8.5 -8.6°
Sets 06:44:39 0° 48° (NE) 3,881 9.5 -8.1°
